[[[{"header":{"parameterUnit":"kt","parameterCategory":2,"dx":1,"dy":1,"la1":30.253999710083008,"la2":30.299108505249023,"lo1":-89.0895004272461,"lo2":-89.04439544677734,"nx":28,"ny":28,"refTime":"2022-09-28T21:00:00:Z","depth":"0","parameterNumber":2,"parameterNumberName":"U-component_of_CURRENTS"},"data":[-0.3614,-0.355,-0.3553,-0.342,-0.3428,-0.3302,-0.3292,-0.3326,-0.3467,-0.3676,-0.394,-0.4243,-0.4269,-0.4385,-0.4089,-0.3848,-0.367,-0.3554,-0.3525,-0.3773,-0.3802,-0.383,-0.3788,-0.3553,-0.3553,-0.3131,-0.3128,-0.3126,-0.3703,-0.3705,-0.3731,-0.3749,-0.3717,-0.3819,-0.3909,-0.3874,-0.3926,-0.4206,-0.4324,-0.4507,-0.4373,-0.435,-0.4189,-0.3987,-0.3842,-0.3852,-0.3793,-0.3704,-0.3995,-0.3951,-0.3747,-0.3747,-0.3748,-0.3748,-0.3748,-0.3748,-0.387,-0.3861,-0.3915,-0.395,-0.4015,-0.4052,-0.4037,-0.4201,-0.4304,-0.4446,-0.4652,-0.4746,-0.4726,-0.4608,-0.4496,-0.4285,-0.4311,-0.4143,-0.4163,-0.4146,-0.3989,-0.4285,-0.4178,-0.418,-0.4181,-0.4183,-0.4184,0,-0.3987,-0.4026,-0.4075,-0.4135,-0.4187,-0.4262,-0.4352,-0.4424,-0.4615,-0.4726,-0.4854,-0.4914,-0.4951,-0.484,-0.4734,-0.4636,-0.4473,-0.4518,-0.4495,-0.4277,-0.4208,-0.4065,-0.4424,-0.4376,-0.4379,-0.4381,-0.4382,-0.4383,-0.4096,-0.4127,-0.4253,-0.4282,-0.433,-0.4404,-0.4457,-0.4621,-0.4692,-0.4898,-0.4926,-0.5016,-0.5047,-0.4998,-0.49,-0.4805,-0.4724,-0.4587,-0.4548,-0.4492,-0.4473,-0.4442,-0.4335,-0.4413,-0.4409,-0.4406,-0.4404,0,-0.4137,-0.4239,-0.4304,-0.4432,-0.4474,-0.4497,-0.4639,-0.4691,-0.4814,-0.4906,-0.4931,-0.5055,-0.5065,-0.5052,-0.5016,-0.4927,-0.4781,-0.4819,-0.4695,-0.465,-0.4501,-0.4504,-0.4421,-0.4291,-0.4711,-0.4709,-0.4708,0,-0.4237,-0.428,-0.4411,-0.4443,-0.4505,-0.4607,-0.4676,-0.4745,-0.4856,-0.4922,-0.4992,-0.5039,-0.5036,-0.5033,-0.4977,-0.4898,-0.4945,-0.482,-0.4788,-0.4687,-0.467,-0.4607,-0.4601,-0.4897,-0.4897,-0.4897,-0.4897,0,-0.4246,-0.438,-0.4446,-0.4487,-0.4619,-0.4652,-0.4705,-0.4797,-0.486,-0.494,-0.498,-0.5014,-0.5021,-0.4994,-0.4946,-0.4932,-0.493,-0.49,-0.4795,-0.4788,-0.4666,-0.4646,-0.4636,-0.4897,-0.4897,-0.4897,-0.4897,0,-0.4314,-0.4381,-0.4471,-0.4583,-0.4609,-0.4655,-0.474,-0.4802,-0.488,-0.4904,-0.4937,-0.494,-0.4975,-0.4922,-0.4924,-0.4911,-0.4869,-0.4848,-0.4846,-0.4755,-0.469,-0.4557,-0.4586,-0.454,-0.4788,-0.4788,-0.4787,0,-0.4295,-0.4396,-0.4461,-0.4542,-0.4592,-0.4644,-0.4703,-0.4756,-0.4787,-0.4829,-0.4838,-0.4867,-0.4832,-0.4831,-0.4842,-0.4828,-0.483,-0.482,-0.4758,-0.4757,-0.4674,-0.4734,-0.4614,-0.4586,-0.478,-0.4781,-0.4782,0,-0.4271,-0.4399,-0.4402,-0.4445,-0.4527,-0.4559,-0.4627,-0.4684,-0.4719,-0.4728,-0.4768,-0.4802,-0.4778,-0.4788,-0.4776,-0.4785,-0.4815,-0.4737,-0.4736,-0.4718,-0.4808,-0.4732,-0.4729,-0.4788,-0.479,-0.4791,-0.4776,0,-0.4309,-0.4356,-0.4383,-0.4453,-0.4492,-0.4531,-0.4575,-0.4599,-0.4592,-0.4605,-0.4646,-0.4641,-0.4654,-0.4668,-0.4653,-0.4712,-0.4677,-0.4653,-0.4605,-0.4668,-0.4651,-0.4656,-0.4581,-0.458,-0.4578,-0.4577,0,0,-0.4253,-0.431,-0.4338,-0.4391,-0.442,-0.4424,-0.447,-0.4492,-0.4508,-0.452,-0.4483,-0.4523,-0.4519,-0.4577,-0.4596,-0.4595,-0.4577,-0.4576,-0.4639,-0.4646,-0.4653,-0.464,-0.4646,-0.4575,-0.4575,-0.4575,-0.4574,0,-0.4261,-0.4285,-0.4323,-0.4358,-0.4397,-0.4411,-0.4422,-0.4443,-0.4441,-0.4473,-0.4445,-0.4459,-0.4476,-0.4487,-0.4495,-0.4572,-0.4529,-0.4573,-0.4624,-0.4628,-0.4637,-0.4645,-0.4634,-0.464,-0.4571,-0.4571,-0.4572,0,-0.424,-0.4271,-0.4285,-0.4338,-0.4349,-0.4392,-0.4355,-0.4381,-0.4409,-0.4357,-0.4377,-0.4371,-0.4372,-0.441,-0.4423,-0.4397,-0.4474,-0.4456,-0.4462,-0.4471,-0.4473,-0.4484,-0.4493,-0.4369,-0.4369,-0.4368,0,0,-0.4244,-0.4277,-0.4311,-0.4338,-0.4356,-0.4359,-0.4369,-0.436,-0.4361,-0.4354,-0.4339,-0.4333,-0.4352,-0.4352,-0.4365,-0.4405,-0.4389,-0.4432,-0.4442,-0.445,-0.4462,-0.4467,-0.4478,-0.4366,-0.4366,-0.4366,0,0,-0.4233,-0.4277,-0.4272,-0.4312,-0.4335,-0.4346,-0.4357,-0.4345,-0.434,-0.4324,-0.4295,-0.429,-0.4321,-0.4309,-0.4283,-0.435,-0.431,-0.4316,-0.4356,-0.4368,-0.4377,-0.4387,-0.4237,0,0,0,0,0,-0.4249,-0.428,-0.4277,-0.4286,-0.432,-0.4359,-0.4362,-0.4336,-0.4304,-0.4315,-0.4293,-0.4266,-0.4287,-0.4263,-0.4267,-0.4304,-0.4339,-0.4344,-0.4348,-0.4411,-0.4423,-0.4434,0,0,0,0,0,0,-0.4253,-0.4264,-0.4276,-0.4293,-0.4301,-0.4357,-0.4304,-0.4298,-0.4301,-0.4292,-0.4272,-0.4266,-0.4244,-0.426,-0.4264,-0.4299,-0.4236,-0.4341,-0.4345,-0.4348,-0.4415,-0.4425,-0.4434,0,0,0,0,0,-0.4255,-0.4264,-0.4324,-0.4291,-0.4298,-0.4282,-0.4301,-0.4296,-0.4289,-0.4276,-0.4268,-0.4267,-0.4247,-0.4247,-0.4262,-0.4298,-0.4233,-0.4235,-0.4343,-0.4347,-0.4349,-0.442,0,0,0,0,0,0,-0.4257,-0.4253,-0.4325,-0.4326,-0.4265,-0.4277,-0.4277,-0.4294,-0.427,-0.4265,-0.4271,-0.4264,-0.4249,-0.4249,-0.4249,-0.4299,-0.4231,-0.4232,-0.4233,-0.4346,-0.4348,-0.4351,0,0,0,0,0,0,-0.4248,-0.4254,-0.4325,-0.4294,-0.4291,-0.4272,-0.4272,-0.4298,-0.4269,-0.4265,-0.426,-0.4268,-0.4244,-0.425,-0.425,-0.4291,-0.4229,-0.4231,-0.4232,-0.4232,-0.4348,-0.435,0,0,0,0,0,0,-0.425,-0.4255,-0.4293,-0.4291,-0.4288,-0.4296,-0.4292,-0.4323,-0.426,-0.4265,-0.4252,-0.4249,-0.4247,-0.4247,-0.4252,-0.4293,-0.4291,-0.4229,-0.423,-0.4231,-0.4231,0,0,0,0,0,0,0,-0.4252,-0.4225,-0.4323,-0.4288,-0.4286,-0.4339,-0.4339,-0.4338,-0.4259,-0.4256,-0.4253,-0.425,-0.4221,-0.4223,-0.4224,-0.4294,0,0,-0.4229,-0.423,0,0,0,0,0,0,0,0,-0.4222,-0.4224,-0.4323,-0.4323,-0.4324,-0.4339,-0.4339,-0.4338,-0.4258,-0.4256,-0.4254,-0.4251,-0.4222,-0.4223,-0.4224,0,0,0,0,0,0,0,0,0,0,0,0,0,0,0,-0.4323,-0.4323,0,-0.4339,-0.4339,-0.4338,-0.4258,-0.4256,-0.4254,-0.4252,-0.4222,-0.4223,-0.4224,0,0,0,0,0,0,0,0,0,0,0,0,0,0,0,0,0,0,0,0,0,0,0,0,0,0,0,0,0,0,0,0,0,0,0,0,0,0,0,0,0,0,0,0,0,0,0,0,0,0,0,0,0,0,0,0,0,0,0,0,0,0,0,0,0,0,0,0,0]}],[{"header":{"parameterUnit":"kt","parameterCategory":2,"dx":1,"dy":1,"la1":30.253999710083008,"la2":30.299108505249023,"lo1":-89.0895004272461,"lo2":-89.04439544677734,"nx":28,"ny":28,"refTime":"2022-09-28T21:00:00:Z","depth":"0","parameterNumber":3,"parameterNumberName":"V-component_of_CURRENTS"},"data":[-0.2099,-0.2224,-0.2287,-0.2514,-0.261,-0.2737,-0.2774,-0.2782,-0.2662,-0.2337,-0.1871,-0.1501,-0.023,0.1487,0.2402,0.2447,0.2736,0.2724,0.2883,0.2376,0.2318,0.2262,0.2299,0.2826,0.2828,0.3549,0.3557,0.3562,-0.2043,-0.2117,-0.2243,-0.2377,-0.25,-0.2499,-0.2568,-0.2597,-0.2591,-0.2399,-0.2202,-0.1315,-0.0496,0.0299,0.1319,0.1679,0.1768,0.1867,0.2013,0.2077,0.136,0.1367,0.1704,0.1704,0.1704,0.1704,0.1703,0.1703,-0.1948,-0.2022,-0.2089,-0.2209,-0.2297,-0.2387,-0.2444,-0.2433,-0.2423,-0.2299,-0.2065,-0.1737,-0.0909,-0.0055,0.0262,0.0973,0.0938,0.1157,0.1283,0.136,0.1503,0.0665,0.092,0.0919,0.0919,0.0918,0.0917,0,-0.1868,-0.1874,-0.1927,-0.2054,-0.2116,-0.2189,-0.2209,-0.2231,-0.2116,-0.2056,-0.1904,-0.1714,-0.1119,-0.0597,-0.0006,0.0258,0.0692,0.0539,0.0789,0.1028,0.1133,0.1286,0.04,0.0605,0.0602,0.06,0.0599,0.0598,-0.1746,-0.1792,-0.1839,-0.19,-0.1904,-0.1954,-0.1986,-0.1904,-0.1906,-0.1745,-0.1732,-0.1437,-0.1229,-0.0663,-0.024,0.0187,0.0395,0.0466,0.0458,0.0678,0.0848,0.0941,0.1036,0.0569,0.0573,0.0576,0.0578,0,-0.1678,-0.1671,-0.1737,-0.1736,-0.1744,-0.1789,-0.1776,-0.1792,-0.1691,-0.1659,-0.1623,-0.1385,-0.1093,-0.0773,-0.0419,-0.0222,0.0241,0.0164,0.016,0.0217,0.0621,0.0734,0.116,0.1305,0.0413,0.0416,0.0419,0,-0.1558,-0.1604,-0.1593,-0.1623,-0.1688,-0.1615,-0.165,-0.1594,-0.1513,-0.1499,-0.1321,-0.1262,-0.0948,-0.0739,-0.0527,-0.0212,-0.0231,-0.0009,0.005,0.007,0.0078,0.036,0.0483,-0.0036,-0.0038,-0.0039,-0.004,0,-0.1447,-0.1475,-0.1531,-0.153,-0.1502,-0.1502,-0.1479,-0.1397,-0.1384,-0.1271,-0.1237,-0.1061,-0.0965,-0.0763,-0.0516,-0.0528,-0.023,-0.0214,-0.0018,-0.0013,0.0108,0.0121,0.044,-0.0042,-0.0042,-0.0043,-0.0043,0,-0.133,-0.1356,-0.1417,-0.1409,-0.1407,-0.1407,-0.137,-0.1348,-0.1239,-0.1188,-0.1091,-0.099,-0.0859,-0.0797,-0.0547,-0.0605,-0.0468,-0.0351,-0.034,-0.022,-0.0175,0.0008,0.0072,0.0319,-0.022,-0.0222,-0.0224,0,-0.1239,-0.1295,-0.1246,-0.129,-0.1312,-0.1225,-0.1214,-0.1159,-0.1097,-0.1045,-0.0925,-0.0874,-0.0801,-0.0771,-0.0677,-0.0533,-0.0454,-0.0542,-0.0286,-0.0278,-0.0215,-0.0181,-0.0131,0.0033,-0.0249,-0.0246,-0.0244,0,-0.1159,-0.1134,-0.1142,-0.1153,-0.11,-0.1095,-0.1074,-0.1033,-0.1024,-0.0942,-0.0913,-0.0826,-0.0763,-0.0719,-0.0649,-0.0568,-0.0491,-0.051,-0.0502,-0.0447,-0.0299,-0.0224,-0.02,-0.0443,-0.044,-0.0438,-0.0264,0,-0.1058,-0.1067,-0.1077,-0.1063,-0.1041,-0.1045,-0.0979,-0.0955,-0.0909,-0.0861,-0.0805,-0.0719,-0.0652,-0.0627,-0.0587,-0.0531,-0.0497,-0.0461,-0.0417,-0.0431,-0.0354,-0.0339,-0.0488,-0.0486,-0.0484,-0.0483,0,0,-0.0989,-0.1003,-0.0944,-0.0955,-0.0945,-0.0864,-0.0884,-0.0844,-0.0785,-0.0764,-0.0738,-0.0631,-0.0574,-0.0526,-0.0534,-0.0505,-0.0444,-0.0494,-0.0436,-0.0431,-0.0427,-0.0354,-0.0341,-0.048,-0.048,-0.0479,-0.0479,0,-0.0951,-0.0921,-0.0942,-0.0916,-0.0877,-0.0838,-0.0837,-0.0781,-0.0755,-0.0729,-0.0669,-0.062,-0.0556,-0.0504,-0.047,-0.0488,-0.0403,-0.0476,-0.0517,-0.0426,-0.0424,-0.0421,-0.035,-0.0339,-0.0475,-0.0475,-0.0475,0,-0.0892,-0.0867,-0.0868,-0.0833,-0.0802,-0.0796,-0.0737,-0.072,-0.0715,-0.0631,-0.0612,-0.0559,-0.0488,-0.0461,-0.0442,-0.0421,-0.0357,-0.0395,-0.0401,-0.0395,-0.0298,-0.0296,-0.0295,-0.0312,-0.0312,-0.0312,0,0,-0.0866,-0.0867,-0.0813,-0.082,-0.0804,-0.0749,-0.0732,-0.0702,-0.0658,-0.064,-0.0587,-0.0532,-0.0489,-0.0461,-0.0416,-0.0389,-0.0322,-0.038,-0.0387,-0.0394,-0.0392,-0.0298,-0.0296,-0.0312,-0.0312,-0.0312,0,0,-0.0849,-0.0802,-0.0782,-0.0787,-0.0752,-0.0692,-0.0691,-0.0658,-0.062,-0.0616,-0.0543,-0.0527,-0.0497,-0.0449,-0.0453,-0.0401,-0.0364,-0.0362,-0.0444,-0.0452,-0.046,-0.0471,-0.0393,0,0,0,0,0,-0.0791,-0.0809,-0.0791,-0.0785,-0.0735,-0.0703,-0.0694,-0.0649,-0.0629,-0.063,-0.0581,-0.0537,-0.0437,-0.044,-0.0424,-0.0429,-0.0308,-0.0308,-0.0309,-0.0408,-0.0418,-0.0426,0,0,0,0,0,0,-0.0788,-0.0782,-0.079,-0.0735,-0.0723,-0.0703,-0.0662,-0.065,-0.0628,-0.0623,-0.0548,-0.0534,-0.0486,-0.0443,-0.043,-0.0436,-0.0397,-0.0308,-0.0309,-0.0309,-0.0411,-0.0419,-0.0426,0,0,0,0,0,-0.0785,-0.078,-0.0718,-0.0734,-0.0723,-0.0665,-0.0661,-0.0651,-0.0634,-0.0558,-0.0544,-0.0602,-0.0487,-0.0472,-0.0435,-0.0444,-0.0406,-0.0401,-0.0308,-0.0309,-0.0309,-0.0415,0,0,0,0,0,0,-0.0783,-0.0766,-0.0714,-0.0708,-0.073,-0.0665,-0.0656,-0.0652,-0.0569,-0.0556,-0.0608,-0.0604,-0.0488,-0.0476,-0.0465,-0.045,-0.0413,-0.0408,-0.0405,-0.0309,-0.0309,-0.031,0,0,0,0,0,0,-0.0768,-0.0762,-0.0711,-0.0709,-0.0702,-0.0665,-0.0657,-0.0612,-0.0568,-0.0623,-0.0618,-0.0607,-0.0496,-0.048,-0.0471,-0.0403,-0.0418,-0.0413,-0.041,-0.0408,-0.0309,-0.0309,0,0,0,0,0,0,-0.0764,-0.0758,-0.071,-0.0705,-0.0699,-0.0629,-0.0623,-0.057,-0.0584,-0.0627,-0.0582,-0.0581,-0.05,-0.049,-0.0475,-0.0412,-0.0406,-0.0418,-0.0415,-0.0413,-0.0411,0,0,0,0,0,0,0,-0.0761,-0.0816,-0.0749,-0.0702,-0.0696,-0.0653,-0.0651,-0.0649,-0.0584,-0.0583,-0.0582,-0.0581,-0.0443,-0.0438,-0.0433,-0.0418,0,0,-0.0418,-0.0416,0,0,0,0,0,0,0,0,-0.0816,-0.0816,-0.0749,-0.0747,-0.0746,-0.0652,-0.0651,-0.065,-0.0584,-0.0583,-0.0582,-0.0582,-0.0441,-0.0438,-0.0434,0,0,0,0,0,0,0,0,0,0,0,0,0,0,0,-0.0749,-0.0747,0,-0.0652,-0.0651,-0.065,-0.0584,-0.0583,-0.0582,-0.0582,-0.044,-0.0437,-0.0434,0,0,0,0,0,0,0,0,0,0,0,0,0,0,0,0,0,0,0,0,0,0,0,0,0,0,0,0,0,0,0,0,0,0,0,0,0,0,0,0,0,0,0,0,0,0,0,0,0,0,0,0,0,0,0,0,0,0,0,0,0,0,0,0,0,0,0,0,0]}]],[[{"header":{"parameterUnit":"kt","parameterCategory":2,"dx":1,"dy":1,"la1":30.253999710083008,"la2":30.299108505249023,"lo1":-89.0895004272461,"lo2":-89.04439544677734,"nx":28,"ny":28,"refTime":"2022-09-28T21:00:00:Z","depth":"2","parameterNumber":2,"parameterNumberName":"U-component_of_CURRENTS"},"data":[-0.3484,-0.3422,-0.3424,-0.3293,-0.3307,-0.3172,-0.3158,-0.3119,-0.314,-0.3067,-0.3045,-0.3298,-0.3325,-0.2727,-0.2553,-0.2267,-0.2454,-0.2148,-0.3191,-0.3115,-0.317,-0.3287,-0.3172,0,0,0,0,0,-0.3572,-0.3581,-0.3606,-0.3626,-0.359,-0.3697,-0.3779,-0.3707,-0.3726,-0.3863,-0.3927,-0.3558,-0.3401,-0.335,-0.2972,-0.2895,-0.2816,-0.2748,-0.2621,-0.2689,-0.2749,-0.2622,-0.2085,-0.2081,-0.2077,-0.2073,0,0,-0.3738,-0.373,-0.3786,-0.3822,-0.3888,-0.3922,-0.3904,-0.4049,-0.4139,-0.4215,-0.4437,-0.4385,-0.4317,-0.399,-0.3768,-0.3579,-0.3891,-0.3659,-0.3678,-0.3705,-0.3631,-0.3573,-0.336,-0.3365,-0.3369,-0.3373,-0.3376,0,-0.385,-0.389,-0.3941,-0.4002,-0.4056,-0.4129,-0.422,-0.4287,-0.4476,-0.4577,-0.4698,-0.475,-0.4742,-0.4477,-0.4357,-0.4238,-0.4188,-0.4048,-0.463,-0.3816,-0.3756,-0.3726,-0.3753,-0.3593,-0.36,-0.3605,-0.3608,-0.3611,-0.3955,-0.3987,-0.4114,-0.4145,-0.4196,-0.4272,-0.4325,-0.4489,-0.4558,-0.476,-0.4787,-0.4878,-0.49,-0.4855,-0.4713,-0.4609,-0.4711,-0.4194,-0.4121,-0.4613,-0.4582,-0.4582,-0.4582,-0.368,-0.3672,-0.3664,-0.3658,0,-0.3995,-0.4096,-0.4163,-0.4293,-0.4336,-0.4363,-0.4506,-0.4558,-0.4683,-0.4772,-0.4799,-0.4924,-0.4935,-0.4927,-0.4895,-0.4809,-0.475,-0.4702,-0.4319,-0.4244,-0.4597,-0.4594,-0.4595,-0.4592,-0.459,-0.4588,-0.4586,0,-0.4092,-0.4138,-0.4268,-0.4302,-0.4367,-0.447,-0.4542,-0.4615,-0.4727,-0.4792,-0.4866,-0.4911,-0.4916,-0.4914,-0.4861,-0.4783,-0.4832,-0.4705,-0.4674,-0.4347,-0.4312,-0.4718,-0.471,-0.4786,-0.4786,-0.4786,-0.4787,0,-0.4101,-0.4235,-0.4302,-0.4344,-0.4479,-0.4515,-0.4572,-0.4668,-0.4731,-0.4815,-0.4855,-0.4891,-0.4901,-0.4877,-0.4832,-0.4819,-0.4818,-0.479,-0.4682,-0.4675,-0.4331,-0.4292,-0.4787,-0.4787,-0.4787,-0.4787,-0.4787,0,-0.4169,-0.4235,-0.4326,-0.4439,-0.4467,-0.4516,-0.4607,-0.4672,-0.4753,-0.4779,-0.4816,-0.4821,-0.4858,-0.4808,-0.4812,-0.48,-0.4759,-0.4739,-0.4737,-0.4641,-0.4577,-0.4208,-0.4181,-0.468,-0.468,-0.4679,-0.4679,0,-0.4149,-0.425,-0.4315,-0.44,-0.445,-0.4507,-0.4569,-0.4627,-0.4662,-0.4707,-0.4719,-0.4751,-0.4719,-0.472,-0.4732,-0.4719,-0.4722,-0.4712,-0.465,-0.4648,-0.4562,-0.4622,-0.4242,-0.4191,-0.4673,-0.4673,-0.4674,0,-0.4126,-0.4253,-0.4257,-0.4301,-0.4388,-0.4423,-0.4494,-0.4556,-0.4593,-0.461,-0.465,-0.4688,-0.4666,-0.4676,-0.4665,-0.4676,-0.4706,-0.4629,-0.4627,-0.461,-0.47,-0.4621,-0.4617,-0.4682,-0.4683,-0.4684,-0.4669,0,-0.4163,-0.4211,-0.4239,-0.4311,-0.4352,-0.4395,-0.4443,-0.4472,-0.4471,-0.4487,-0.4532,-0.4529,-0.4544,-0.4559,-0.4545,-0.4603,-0.4569,-0.4545,-0.4496,-0.456,-0.4543,-0.4547,-0.4473,-0.4472,-0.4471,-0.447,0,0,-0.4109,-0.4165,-0.4194,-0.4248,-0.428,-0.4291,-0.4339,-0.4364,-0.4388,-0.4402,-0.4368,-0.4411,-0.4409,-0.4467,-0.4487,-0.4486,-0.4468,-0.4467,-0.4531,-0.4538,-0.4544,-0.4532,-0.4537,-0.4468,-0.4467,-0.4467,-0.4466,0,-0.4116,-0.4141,-0.4179,-0.4217,-0.426,-0.4278,-0.429,-0.4317,-0.4319,-0.4355,-0.433,-0.4347,-0.4365,-0.4377,-0.4385,-0.4463,-0.4419,-0.4465,-0.4515,-0.452,-0.4529,-0.4536,-0.4526,-0.4532,-0.4463,-0.4463,-0.4464,0,-0.4096,-0.4128,-0.4143,-0.4198,-0.4213,-0.4259,-0.4226,-0.4256,-0.4286,-0.4237,-0.4263,-0.4258,-0.426,-0.4299,-0.4313,-0.4287,-0.4363,-0.4346,-0.4353,-0.4359,-0.4362,-0.4372,-0.4382,-0.4257,-0.4257,-0.4256,0,0,-0.41,-0.4132,-0.4171,-0.4199,-0.4218,-0.4226,-0.4239,-0.4235,-0.424,-0.4235,-0.4224,-0.422,-0.4239,-0.424,-0.4254,-0.4295,-0.4277,-0.4322,-0.4332,-0.434,-0.4351,-0.4356,-0.4366,-0.4254,-0.4254,-0.4254,0,0,-0.409,-0.4136,-0.4134,-0.4174,-0.4201,-0.4217,-0.423,-0.4222,-0.4221,-0.4207,-0.418,-0.4176,-0.4209,-0.4197,-0.4171,-0.424,-0.4198,-0.4204,-0.4246,-0.4258,-0.4268,-0.4276,-0.4125,0,0,0,0,0,-0.4108,-0.4138,-0.4137,-0.4147,-0.4186,-0.4228,-0.4232,-0.4212,-0.4183,-0.4196,-0.4178,-0.4151,-0.4176,-0.4152,-0.4156,-0.4193,-0.4226,-0.4231,-0.4236,-0.4301,-0.4314,-0.4324,0,0,0,0,0,0,-0.4112,-0.4123,-0.4137,-0.4157,-0.4166,-0.4226,-0.4178,-0.4173,-0.418,-0.4173,-0.4156,-0.4151,-0.4131,-0.4149,-0.4152,-0.4189,-0.4124,-0.4228,-0.4232,-0.4236,-0.4305,-0.4316,-0.4325,0,0,0,0,0,-0.4115,-0.4124,-0.419,-0.4156,-0.4164,-0.4155,-0.4175,-0.4171,-0.4168,-0.4157,-0.415,-0.4152,-0.4133,-0.4133,-0.4151,-0.4188,-0.4121,-0.4123,-0.4231,-0.4234,-0.4237,-0.431,0,0,0,0,0,0,-0.4117,-0.4114,-0.4191,-0.4193,-0.4132,-0.415,-0.4151,-0.4168,-0.415,-0.4146,-0.4151,-0.4146,-0.4135,-0.4135,-0.4135,-0.4189,-0.4119,-0.4121,-0.4122,-0.4234,-0.4236,-0.4238,0,0,0,0,0,0,-0.4109,-0.4116,-0.4192,-0.4162,-0.416,-0.4146,-0.4147,-0.4171,-0.4149,-0.4143,-0.4139,-0.4149,-0.4129,-0.4136,-0.4136,-0.4175,-0.4118,-0.4119,-0.412,-0.4121,-0.4236,-0.4238,0,0,0,0,0,0,-0.4112,-0.4117,-0.4161,-0.416,-0.4158,-0.4174,-0.4165,-0.4199,-0.4143,-0.4144,-0.4136,-0.4133,-0.4132,-0.4131,-0.4138,-0.4177,-0.4175,-0.4118,-0.4119,-0.4119,-0.412,0,0,0,0,0,0,0,-0.4113,-0.4081,-0.4185,-0.4158,-0.4156,-0.4212,-0.4212,-0.4212,-0.4143,-0.414,-0.4137,-0.4134,-0.411,-0.4111,-0.4113,-0.4178,0,0,-0.4118,-0.4118,0,0,0,0,0,0,0,0,-0.4079,-0.4081,-0.4185,-0.4186,-0.4187,-0.4212,-0.4212,-0.4212,-0.4142,-0.414,-0.4138,-0.4136,-0.411,-0.4111,-0.4113,0,0,0,0,0,0,0,0,0,0,0,0,0,0,0,-0.4185,-0.4186,0,-0.4212,-0.4212,-0.4212,-0.4142,-0.414,-0.4138,-0.4136,-0.4111,-0.4112,-0.4113,0,0,0,0,0,0,0,0,0,0,0,0,0,0,0,0,0,0,0,0,0,0,0,0,0,0,0,0,0,0,0,0,0,0,0,0,0,0,0,0,0,0,0,0,0,0,0,0,0,0,0,0,0,0,0,0,0,0,0,0,0,0,0,0,0,0,0,0,0]}],[{"header":{"parameterUnit":"kt","parameterCategory":2,"dx":1,"dy":1,"la1":30.253999710083008,"la2":30.299108505249023,"lo1":-89.0895004272461,"lo2":-89.04439544677734,"nx":28,"ny":28,"refTime":"2022-09-28T21:00:00:Z","depth":"2","parameterNumber":3,"parameterNumberName":"V-component_of_CURRENTS"},"data":[-0.1899,-0.202,-0.2081,-0.23,-0.24,-0.2511,-0.2546,-0.2488,-0.2332,-0.2116,-0.1824,-0.1414,-0.0761,-0.0296,0.018,0.0524,0.052,0.0574,0.0487,0.0272,0.0254,0.0561,0.0485,0,0,0,0,0,-0.1845,-0.1923,-0.2046,-0.2177,-0.2292,-0.2301,-0.2365,-0.2361,-0.234,-0.2117,-0.1914,-0.1335,-0.0765,-0.023,0.0406,0.0764,0.0737,0.0845,0.0725,0.0709,0.0695,0.0659,0.0847,0.0848,0.0849,0.085,0,0,-0.1755,-0.1827,-0.1893,-0.2013,-0.2101,-0.2187,-0.2243,-0.2224,-0.2212,-0.2059,-0.1864,-0.1526,-0.1031,-0.0217,0.019,0.0595,0.0562,0.0668,0.0657,0.0646,0.0613,0.0574,0.0785,0.0786,0.0786,0.0786,0.0786,0,-0.1675,-0.1681,-0.1734,-0.186,-0.1922,-0.1993,-0.2016,-0.2037,-0.1928,-0.1871,-0.1728,-0.1547,-0.0986,-0.0516,0.005,0.0285,0.0414,0.0521,0.0434,0.0369,0.0322,0.0352,0.0333,0.0493,0.0492,0.0491,0.049,0.0489,-0.1554,-0.1598,-0.1646,-0.1706,-0.1712,-0.1764,-0.1797,-0.1719,-0.1723,-0.1571,-0.156,-0.1281,-0.1082,-0.0538,-0.0137,0.0273,0.0262,0.0474,0.0458,0.0329,0.0365,0.0347,0.0329,0.0474,0.0476,0.0478,0.0479,0,-0.1486,-0.1478,-0.1545,-0.1545,-0.1554,-0.1601,-0.1591,-0.1609,-0.1514,-0.1487,-0.1454,-0.1228,-0.0948,-0.0639,-0.0299,-0.0107,0.0165,0.0266,0.0187,0.0234,0.0316,0.0303,0.0497,0.0501,0.0504,0.0507,0.051,0,-0.1366,-0.1412,-0.1402,-0.1432,-0.1498,-0.1428,-0.1466,-0.1415,-0.134,-0.1329,-0.1159,-0.1104,-0.0803,-0.0603,-0.0396,-0.0093,-0.0111,0.0105,0.0163,0.0116,0.0118,0.0045,0.0039,0.0078,0.0077,0.0075,0.0074,0,-0.1256,-0.1284,-0.134,-0.134,-0.1315,-0.1318,-0.1296,-0.1221,-0.1209,-0.1105,-0.1075,-0.0907,-0.0817,-0.0622,-0.0382,-0.0392,-0.0108,-0.009,0.0098,0.0104,0.0156,0.0164,0.0073,0.0073,0.0072,0.0072,0.0071,0,-0.114,-0.1166,-0.1227,-0.1221,-0.122,-0.1223,-0.119,-0.117,-0.1069,-0.1021,-0.093,-0.0832,-0.0708,-0.0647,-0.0407,-0.0462,-0.0329,-0.0215,-0.0205,-0.0087,-0.004,0.0062,0.0102,-0.0086,-0.0088,-0.009,-0.0092,0,-0.1049,-0.1105,-0.1058,-0.1104,-0.1126,-0.1043,-0.1034,-0.0983,-0.0924,-0.0877,-0.0762,-0.0714,-0.0642,-0.0613,-0.0525,-0.0384,-0.031,-0.0393,-0.0146,-0.0139,-0.0079,-0.0051,-0.008,0.0069,-0.0115,-0.0112,-0.011,0,-0.0969,-0.0946,-0.0955,-0.0967,-0.0917,-0.0914,-0.0895,-0.0858,-0.0851,-0.0773,-0.0748,-0.0663,-0.0603,-0.0559,-0.0491,-0.0414,-0.0344,-0.0355,-0.0348,-0.0297,-0.0163,-0.0092,-0.0069,-0.0297,-0.0295,-0.0293,-0.0129,0,-0.0868,-0.0879,-0.089,-0.0879,-0.0858,-0.0864,-0.0801,-0.0779,-0.0736,-0.0691,-0.0638,-0.0553,-0.0488,-0.0464,-0.0423,-0.0372,-0.0338,-0.0302,-0.0258,-0.0275,-0.0201,-0.0187,-0.0321,-0.0319,-0.0317,-0.0316,0,0,-0.0799,-0.0815,-0.0759,-0.0771,-0.0762,-0.0686,-0.0706,-0.0669,-0.0612,-0.0593,-0.0567,-0.0463,-0.0407,-0.0361,-0.0369,-0.0339,-0.028,-0.0328,-0.0276,-0.0273,-0.0269,-0.02,-0.0188,-0.0313,-0.0313,-0.0312,-0.0312,0,-0.0762,-0.0735,-0.0757,-0.0733,-0.0697,-0.066,-0.066,-0.0607,-0.0582,-0.0557,-0.0498,-0.0452,-0.0387,-0.0336,-0.0303,-0.0321,-0.0239,-0.0308,-0.0351,-0.0266,-0.0265,-0.0263,-0.0195,-0.0186,-0.0308,-0.0308,-0.0308,0,-0.0703,-0.0681,-0.0683,-0.0651,-0.0622,-0.0618,-0.0561,-0.0547,-0.0543,-0.0459,-0.0442,-0.0389,-0.0318,-0.0291,-0.0273,-0.0251,-0.0192,-0.0226,-0.0232,-0.0227,-0.0135,-0.0134,-0.0134,-0.0141,-0.0141,-0.0141,0,0,-0.0678,-0.068,-0.0629,-0.0639,-0.0624,-0.0572,-0.0556,-0.0528,-0.0485,-0.0469,-0.0417,-0.0362,-0.0318,-0.0291,-0.0245,-0.0218,-0.0153,-0.021,-0.0218,-0.0225,-0.0224,-0.0135,-0.0134,-0.014,-0.014,-0.014,0,0,-0.0661,-0.0618,-0.0599,-0.0607,-0.0573,-0.0517,-0.0516,-0.0485,-0.0448,-0.0445,-0.0373,-0.0356,-0.0328,-0.0278,-0.0283,-0.0232,-0.0193,-0.0191,-0.0276,-0.0285,-0.0292,-0.0305,-0.0224,0,0,0,0,0,-0.0605,-0.0625,-0.0608,-0.0602,-0.0557,-0.0527,-0.0518,-0.0476,-0.0458,-0.0459,-0.0411,-0.0367,-0.0267,-0.027,-0.0254,-0.0261,-0.0136,-0.0137,-0.0138,-0.024,-0.025,-0.0258,0,0,0,0,0,0,-0.0602,-0.0597,-0.0607,-0.0555,-0.0543,-0.0526,-0.0487,-0.0476,-0.0457,-0.0452,-0.0379,-0.0365,-0.0316,-0.0273,-0.026,-0.0268,-0.0228,-0.0137,-0.0137,-0.0138,-0.0243,-0.0251,-0.0258,0,0,0,0,0,-0.06,-0.0596,-0.054,-0.0553,-0.0543,-0.0489,-0.0487,-0.0477,-0.0462,-0.0387,-0.0373,-0.0432,-0.0318,-0.0303,-0.0265,-0.0276,-0.0236,-0.0232,-0.0137,-0.0137,-0.0138,-0.0247,0,0,0,0,0,0,-0.0598,-0.0581,-0.0536,-0.053,-0.055,-0.0489,-0.048,-0.0479,-0.0397,-0.0384,-0.0437,-0.0434,-0.0319,-0.0307,-0.0296,-0.0282,-0.0243,-0.0239,-0.0236,-0.0137,-0.0138,-0.0138,0,0,0,0,0,0,-0.0583,-0.0577,-0.0533,-0.0532,-0.0526,-0.0489,-0.0482,-0.0436,-0.0396,-0.0451,-0.0446,-0.0436,-0.0326,-0.031,-0.0301,-0.0232,-0.0249,-0.0244,-0.0241,-0.0239,-0.0138,-0.0138,0,0,0,0,0,0,-0.0579,-0.0574,-0.0533,-0.0529,-0.0523,-0.0457,-0.0446,-0.0396,-0.0414,-0.0454,-0.0412,-0.0412,-0.033,-0.032,-0.0305,-0.024,-0.0234,-0.0249,-0.0246,-0.0243,-0.0242,0,0,0,0,0,0,0,-0.0576,-0.0627,-0.057,-0.0526,-0.0521,-0.0479,-0.0477,-0.0475,-0.0414,-0.0413,-0.0412,-0.0412,-0.0274,-0.0269,-0.0264,-0.0246,0,0,-0.0249,-0.0247,0,0,0,0,0,0,0,0,-0.0628,-0.0627,-0.057,-0.0569,-0.0567,-0.0478,-0.0477,-0.0476,-0.0414,-0.0413,-0.0413,-0.0412,-0.0273,-0.0269,-0.0265,0,0,0,0,0,0,0,0,0,0,0,0,0,0,0,-0.057,-0.0569,0,-0.0478,-0.0477,-0.0476,-0.0414,-0.0413,-0.0413,-0.0412,-0.0272,-0.0268,-0.0265,0,0,0,0,0,0,0,0,0,0,0,0,0,0,0,0,0,0,0,0,0,0,0,0,0,0,0,0,0,0,0,0,0,0,0,0,0,0,0,0,0,0,0,0,0,0,0,0,0,0,0,0,0,0,0,0,0,0,0,0,0,0,0,0,0,0,0,0,0]}]],[[{"header":{"parameterUnit":"kt","parameterCategory":2,"dx":1,"dy":1,"la1":30.253999710083008,"la2":30.299108505249023,"lo1":-89.0895004272461,"lo2":-89.04439544677734,"nx":28,"ny":28,"refTime":"2022-09-28T21:00:00:Z","depth":"4","parameterNumber":2,"parameterNumberName":"U-component_of_CURRENTS"},"data":[-0.2214,-0.2292,-0.2317,-0.2278,-0.2299,-0.241,-0.2526,-0.2694,-0.266,-0.2905,-0.2887,-0.3055,-0.3039,-0.3234,-0.3021,-0.3034,-0.3015,-0.3231,-0.3221,-0.3341,-0.337,-0.3396,-0.3335,0,0,0,0,0,-0.2296,-0.2312,-0.2401,-0.2506,-0.2639,-0.2716,-0.2929,-0.3051,-0.3279,-0.3176,-0.3305,-0.3277,-0.3201,-0.3262,-0.3098,-0.3354,-0.3364,-0.3148,-0.3236,-0.3359,-0.3391,-0.3321,0,0,0,0,0,0,-0.2421,-0.2458,-0.2608,-0.2719,-0.2876,-0.2922,-0.3045,-0.3117,-0.3218,-0.3474,-0.3448,-0.3551,-0.3697,-0.3553,-0.3494,-0.3399,-0.3354,-0.3224,-0.3262,-0.3293,-0.3211,-0.3122,-0.2819,0,0,0,0,0,-0.2526,-0.2643,-0.2756,-0.2913,-0.3048,-0.317,-0.3331,-0.3363,-0.359,-0.3799,-0.3775,-0.375,-0.3737,-0.3705,-0.3637,-0.3566,-0.3757,-0.3633,-0.3649,-0.3646,-0.3609,-0.3582,-0.3599,-0.3515,-0.3519,-0.3521,-0.3523,0,-0.2656,-0.2721,-0.2987,-0.3069,-0.3189,-0.3353,-0.3454,-0.3686,-0.3758,-0.3977,-0.3986,-0.4077,-0.4129,-0.3888,-0.3961,-0.3851,-0.3808,-0.3718,-0.3715,-0.3662,-0.3624,-0.3634,-0.3642,-0.3549,-0.3547,-0.3545,-0.3543,0,-0.2717,-0.2878,-0.3018,-0.3258,-0.3343,-0.3433,-0.3669,-0.3748,-0.3931,-0.4032,-0.4078,-0.4227,-0.422,-0.4254,-0.4236,-0.4094,-0.3996,-0.3902,-0.4185,-0.4153,-0.3691,-0.3688,-0.3592,-0.3583,-0.3574,-0.3568,-0.3562,0,-0.2851,-0.2951,-0.3179,-0.3243,-0.3381,-0.3546,-0.3687,-0.3818,-0.3982,-0.4058,-0.4197,-0.4232,-0.4314,-0.4315,-0.4279,-0.4116,-0.4257,-0.3972,-0.3922,-0.4198,-0.4194,-0.4155,-0.4146,-0.4238,-0.4238,-0.4238,-0.4239,0,-0.2887,-0.3091,-0.3206,-0.3275,-0.3492,-0.3584,-0.37,-0.3866,-0.3959,-0.4112,-0.4171,-0.4257,-0.4296,-0.429,-0.4263,-0.4265,-0.4252,-0.4241,-0.3971,-0.3953,-0.4153,-0.4143,-0.4239,-0.4239,-0.4239,-0.4239,-0.4239,0,-0.2984,-0.3081,-0.3225,-0.341,-0.3458,-0.3562,-0.3735,-0.3846,-0.3995,-0.4063,-0.4148,-0.4187,-0.4259,-0.4229,-0.4254,-0.4249,-0.4214,-0.4197,-0.4194,-0.3914,-0.3834,-0.4014,-0.4121,-0.4121,-0.412,-0.412,-0.4119,0,-0.2973,-0.311,-0.3203,-0.3352,-0.3432,-0.3552,-0.3662,-0.3782,-0.3878,-0.3979,-0.4035,-0.4118,-0.4113,-0.4144,-0.417,-0.4167,-0.4175,-0.4169,-0.409,-0.4087,-0.3836,-0.3873,-0.4155,-0.4113,-0.4114,-0.4114,-0.4115,0,-0.2941,-0.3123,-0.3142,-0.3219,-0.3373,-0.3434,-0.3568,-0.3689,-0.3769,-0.3871,-0.3957,-0.4052,-0.406,-0.4082,-0.4091,-0.4112,-0.4158,-0.4073,-0.407,-0.4039,-0.4156,-0.3896,-0.3875,-0.4147,-0.4149,-0.415,-0.411,0,-0.2988,-0.3076,-0.3118,-0.3234,-0.3311,-0.3395,-0.3495,-0.3584,-0.3654,-0.3711,-0.3825,-0.3863,-0.3922,-0.3954,-0.3951,-0.4031,-0.3992,-0.3969,-0.3907,-0.399,-0.396,-0.3964,-0.3886,-0.3884,-0.3882,-0.388,0,0,-0.2932,-0.3008,-0.3066,-0.314,-0.3206,-0.3279,-0.3358,-0.343,-0.354,-0.3586,-0.3593,-0.3718,-0.3745,-0.3828,-0.387,-0.388,-0.3861,-0.3867,-0.3954,-0.3963,-0.397,-0.3946,-0.3952,-0.3877,-0.3877,-0.3876,-0.3876,0,-0.292,-0.2983,-0.3037,-0.3104,-0.3205,-0.3251,-0.3287,-0.3379,-0.3435,-0.3539,-0.3548,-0.3612,-0.3692,-0.3718,-0.3737,-0.3849,-0.3801,-0.3868,-0.3931,-0.3939,-0.395,-0.3959,-0.3938,-0.3944,-0.3871,-0.3872,-0.3872,0,-0.2892,-0.2942,-0.2975,-0.3068,-0.3126,-0.3201,-0.3203,-0.329,-0.3363,-0.335,-0.3469,-0.3494,-0.3517,-0.3601,-0.3642,-0.361,-0.3729,-0.3711,-0.372,-0.3717,-0.3721,-0.3734,-0.3746,-0.3588,-0.3588,-0.3587,0,0,-0.2883,-0.2937,-0.301,-0.3068,-0.3107,-0.3174,-0.322,-0.3261,-0.3318,-0.3352,-0.3394,-0.3439,-0.3485,-0.3519,-0.3557,-0.3632,-0.3602,-0.3678,-0.3691,-0.3702,-0.3706,-0.3713,-0.3726,-0.3584,-0.3584,-0.3584,0,0,-0.287,-0.2947,-0.2976,-0.3041,-0.311,-0.3167,-0.322,-0.3253,-0.3323,-0.3341,-0.3351,-0.3362,-0.3456,-0.3453,-0.3415,-0.3545,-0.3487,-0.3496,-0.3554,-0.357,-0.3583,-0.3577,-0.3375,0,0,0,0,0,-0.2893,-0.2935,-0.296,-0.298,-0.308,-0.3154,-0.317,-0.3223,-0.324,-0.3283,-0.3326,-0.331,-0.3435,-0.3401,-0.3411,-0.3473,-0.3547,-0.3553,-0.356,-0.3652,-0.3669,-0.3684,0,0,0,0,0,0,-0.29,-0.292,-0.2959,-0.3013,-0.3038,-0.3151,-0.3144,-0.3159,-0.3236,-0.3242,-0.3303,-0.331,-0.3308,-0.3395,-0.3404,-0.3464,-0.3372,-0.3549,-0.3555,-0.356,-0.3658,-0.3672,-0.3684,0,0,0,0,0,-0.2906,-0.2923,-0.3071,-0.3014,-0.3035,-0.3115,-0.3143,-0.3156,-0.3225,-0.3248,-0.3259,-0.3269,-0.3307,-0.3318,-0.34,-0.346,-0.3365,-0.3369,-0.3553,-0.3557,-0.3561,-0.3665,0,0,0,0,0,0,-0.2911,-0.2931,-0.3077,-0.3086,-0.3011,-0.3111,-0.3128,-0.3153,-0.3226,-0.3239,-0.3209,-0.3211,-0.3306,-0.3315,-0.3323,-0.346,-0.336,-0.3364,-0.3366,-0.3556,-0.356,-0.3563,0,0,0,0,0,0,-0.2923,-0.2938,-0.3081,-0.3074,-0.3083,-0.3108,-0.3122,-0.3159,-0.3226,-0.3182,-0.3188,-0.3209,-0.3289,-0.3313,-0.332,-0.3376,-0.3356,-0.3359,-0.3362,-0.3363,-0.3559,-0.3562,0,0,0,0,0,0,-0.293,-0.2943,-0.3072,-0.3079,-0.3086,-0.3189,-0.3141,-0.3238,-0.3236,-0.3177,-0.3237,-0.3237,-0.3286,-0.3294,-0.3317,-0.337,-0.3374,-0.3356,-0.3358,-0.336,-0.3361,0,0,0,0,0,0,0,-0.2936,-0.2835,-0.3027,-0.3082,-0.3089,-0.3171,-0.3173,-0.3175,-0.3236,-0.3237,-0.3237,-0.3237,-0.3336,-0.334,-0.3344,-0.3365,0,0,-0.3356,-0.3357,0,0,0,0,0,0,0,0,-0.2831,-0.2834,-0.3028,-0.303,-0.3032,-0.3171,-0.3173,-0.3174,-0.3236,-0.3237,-0.3237,-0.3237,-0.3337,-0.334,-0.3343,0,0,0,0,0,0,0,0,0,0,0,0,0,0,0,-0.3028,-0.303,0,-0.3171,-0.3173,-0.3174,-0.3236,-0.3237,-0.3237,-0.3237,-0.3338,-0.334,-0.3343,0,0,0,0,0,0,0,0,0,0,0,0,0,0,0,0,0,0,0,0,0,0,0,0,0,0,0,0,0,0,0,0,0,0,0,0,0,0,0,0,0,0,0,0,0,0,0,0,0,0,0,0,0,0,0,0,0,0,0,0,0,0,0,0,0,0,0,0,0]}],[{"header":{"parameterUnit":"kt","parameterCategory":2,"dx":1,"dy":1,"la1":30.253999710083008,"la2":30.299108505249023,"lo1":-89.0895004272461,"lo2":-89.04439544677734,"nx":28,"ny":28,"refTime":"2022-09-28T21:00:00:Z","depth":"4","parameterNumber":3,"parameterNumberName":"V-component_of_CURRENTS"},"data":[-0.102,-0.1136,-0.1199,-0.1363,-0.146,-0.1591,-0.1634,-0.1608,-0.1528,-0.1447,-0.1227,-0.1098,-0.0704,-0.0881,-0.0311,-0.0236,-0.0155,0.0255,0.026,0.0364,0.0359,0.0354,0.0279,0,0,0,0,0,-0.1003,-0.1078,-0.1206,-0.1335,-0.1469,-0.1537,-0.1604,-0.1607,-0.1562,-0.1462,-0.1385,-0.1144,-0.074,-0.0577,-0.0312,-0.0253,0.0074,0.006,0.014,0.0361,0.0355,0.0284,0,0,0,0,0,0,-0.0979,-0.1047,-0.1143,-0.1267,-0.1401,-0.1491,-0.1524,-0.1512,-0.1505,-0.138,-0.134,-0.106,-0.0893,-0.0513,-0.0264,-0.0006,0.0049,0.0107,0.0115,0.0112,0.002,-0.0063,0.0012,0,0,0,0,0,-0.0943,-0.0984,-0.1051,-0.1201,-0.1293,-0.1391,-0.1454,-0.147,-0.1431,-0.1404,-0.1259,-0.1043,-0.0791,-0.0476,-0.0193,0.0046,0.0189,0.0274,0.0272,0.0252,0.0212,0.0241,0.0228,0.0331,0.0331,0.033,0.033,0,-0.0885,-0.0934,-0.1042,-0.1114,-0.1148,-0.1235,-0.1293,-0.1282,-0.1301,-0.1225,-0.1218,-0.1023,-0.0889,-0.0481,-0.0233,0.0115,0.0161,0.0257,0.0235,0.02,0.0234,0.0222,0.0211,0.0325,0.0325,0.0326,0.0326,0,-0.0851,-0.0881,-0.0966,-0.1023,-0.1052,-0.1112,-0.1165,-0.1201,-0.1159,-0.116,-0.1144,-0.0987,-0.077,-0.0526,-0.025,-0.0111,0.0103,0.0178,0.0054,0.0091,0.0208,0.0199,0.0317,0.0319,0.032,0.0321,0.0323,0,-0.0792,-0.085,-0.0896,-0.0931,-0.1018,-0.0996,-0.1062,-0.1043,-0.1019,-0.1028,-0.0912,-0.088,-0.0644,-0.0485,-0.0309,-0.0081,-0.0079,0.007,0.0116,0.0022,0.0014,0.0077,0.0075,0.0084,0.0083,0.0082,0.0081,0,-0.0722,-0.0783,-0.085,-0.0862,-0.0887,-0.0912,-0.0919,-0.0891,-0.0899,-0.0845,-0.0835,-0.0714,-0.0649,-0.049,-0.0287,-0.029,-0.0067,-0.0044,0.0077,0.008,0.0071,0.007,0.008,0.008,0.008,0.0079,0.0079,0,-0.0652,-0.0691,-0.0766,-0.0799,-0.0808,-0.0832,-0.0841,-0.0842,-0.079,-0.0763,-0.0706,-0.0633,-0.0544,-0.0485,-0.0295,-0.0333,-0.0222,-0.0126,-0.0118,-0.0054,-0.0007,-0.0002,-0.0014,-0.0016,-0.0017,-0.0018,-0.0019,0,-0.0583,-0.0652,-0.0634,-0.0695,-0.0726,-0.0683,-0.0696,-0.0677,-0.0644,-0.0626,-0.0541,-0.0517,-0.045,-0.0433,-0.0365,-0.0247,-0.0193,-0.0252,-0.005,-0.0044,-0.0031,-0.0034,-0.0166,-0.0037,-0.0035,-0.0033,-0.0032,0,-0.052,-0.0536,-0.0545,-0.0569,-0.0555,-0.0565,-0.0569,-0.0561,-0.057,-0.0519,-0.0518,-0.0455,-0.0409,-0.0376,-0.0318,-0.026,-0.0215,-0.0203,-0.0197,-0.0161,-0.0077,-0.0057,-0.0044,-0.0173,-0.0171,-0.017,-0.0045,0,-0.0455,-0.0479,-0.0493,-0.0505,-0.0502,-0.0519,-0.0487,-0.048,-0.0456,-0.043,-0.0402,-0.0336,-0.0292,-0.0272,-0.0236,-0.0207,-0.0174,-0.0139,-0.01,-0.0124,-0.0065,-0.0055,-0.0136,-0.0135,-0.0133,-0.0132,0,0,-0.0395,-0.0423,-0.0391,-0.0412,-0.0416,-0.0367,-0.0396,-0.0375,-0.0345,-0.0337,-0.0315,-0.0244,-0.0198,-0.0173,-0.0183,-0.0155,-0.0107,-0.0146,-0.0117,-0.0116,-0.0115,-0.006,-0.0053,-0.0129,-0.0128,-0.0128,-0.0127,0,-0.0369,-0.036,-0.0385,-0.0377,-0.0365,-0.0346,-0.035,-0.0323,-0.0311,-0.0301,-0.0255,-0.0224,-0.0174,-0.0139,-0.0113,-0.0136,-0.0066,-0.0123,-0.017,-0.0106,-0.0107,-0.0108,-0.0055,-0.005,-0.0124,-0.0124,-0.0124,0,-0.0322,-0.0316,-0.0324,-0.0316,-0.0303,-0.0311,-0.0269,-0.0269,-0.0277,-0.0206,-0.0205,-0.0163,-0.0105,-0.0091,-0.0078,-0.0057,-0.0021,-0.0043,-0.0049,-0.0048,0.0022,0.002,0.0018,0.0041,0.0041,0.0041,0,0,-0.0303,-0.0316,-0.0292,-0.0308,-0.0303,-0.0274,-0.0267,-0.0252,-0.0226,-0.0216,-0.0178,-0.0136,-0.0104,-0.0084,-0.0048,-0.003,0.0023,-0.0027,-0.0035,-0.0042,-0.0044,0.0023,0.0021,0.0041,0.0041,0.0041,0,0,-0.0291,-0.0276,-0.0267,-0.0284,-0.0269,-0.0237,-0.0242,-0.0223,-0.0199,-0.0198,-0.0142,-0.0129,-0.0112,-0.0068,-0.0071,-0.0038,-0.0,0.0001,-0.008,-0.0089,-0.0096,-0.0111,-0.0022,0,0,0,0,0,-0.0258,-0.0279,-0.0271,-0.027,-0.0254,-0.0243,-0.0238,-0.0215,-0.0202,-0.0207,-0.0172,-0.0136,-0.006,-0.0061,-0.0049,-0.0061,0.0046,0.0045,0.0044,-0.0055,-0.0065,-0.0073,0,0,0,0,0,0,-0.0257,-0.0258,-0.027,-0.0242,-0.0238,-0.0242,-0.0215,-0.0208,-0.0202,-0.0199,-0.0145,-0.0134,-0.0095,-0.0064,-0.0053,-0.0067,-0.0026,0.0045,0.0045,0.0044,-0.0058,-0.0066,-0.0073,0,0,0,0,0,-0.0257,-0.0257,-0.0243,-0.024,-0.0237,-0.0208,-0.0214,-0.0209,-0.0203,-0.0147,-0.0137,-0.0188,-0.0096,-0.0085,-0.0057,-0.0073,-0.0033,-0.0029,0.0045,0.0045,0.0044,-0.0062,0,0,0,0,0,0,-0.0256,-0.0245,-0.0241,-0.0238,-0.0239,-0.0207,-0.0204,-0.0209,-0.0151,-0.0142,-0.0187,-0.0185,-0.0097,-0.0088,-0.0079,-0.0079,-0.0038,-0.0034,-0.0032,0.0045,0.0044,0.0044,0,0,0,0,0,0,-0.0244,-0.0243,-0.024,-0.0239,-0.0236,-0.0207,-0.0204,-0.0166,-0.0149,-0.0192,-0.019,-0.0186,-0.01,-0.009,-0.0083,-0.0026,-0.0043,-0.0039,-0.0036,-0.0035,0.0044,0.0044,0,0,0,0,0,0,-0.0243,-0.0241,-0.024,-0.0237,-0.0234,-0.0198,-0.0171,-0.0149,-0.0172,-0.0194,-0.0172,-0.0171,-0.0102,-0.0095,-0.0086,-0.0032,-0.0027,-0.0042,-0.004,-0.0038,-0.0037,0,0,0,0,0,0,0,-0.0241,-0.0263,-0.026,-0.0236,-0.0233,-0.0211,-0.021,-0.0209,-0.0172,-0.0172,-0.0172,-0.0171,-0.0063,-0.0059,-0.0055,-0.0037,0,0,-0.0043,-0.0041,0,0,0,0,0,0,0,0,-0.0263,-0.0263,-0.026,-0.026,-0.0259,-0.0211,-0.021,-0.0209,-0.0172,-0.0172,-0.0172,-0.0171,-0.0062,-0.0059,-0.0056,0,0,0,0,0,0,0,0,0,0,0,0,0,0,0,-0.026,-0.026,0,-0.0211,-0.021,-0.021,-0.0172,-0.0172,-0.0172,-0.0172,-0.0061,-0.0059,-0.0056,0,0,0,0,0,0,0,0,0,0,0,0,0,0,0,0,0,0,0,0,0,0,0,0,0,0,0,0,0,0,0,0,0,0,0,0,0,0,0,0,0,0,0,0,0,0,0,0,0,0,0,0,0,0,0,0,0,0,0,0,0,0,0,0,0,0,0,0,0]}]]]